Change the Weather History Date:

Saturday, October 20, 2012

  Actual Average Record
Temperature  
Mean Temperature 48 °F -  
Max Temperature 71 °F 55 °F 75 °F (2003)
Min Temperature 24 °F 36 °F 21 °F (2008)
Degree Days  
Heating Degree Days 18    
Moisture  
Dew Point 24 °F    
Average Humidity 44    
Maximum Humidity 75    
Minimum Humidity 14    
Precipitation  
Precipitation 0.00 in - - ()
Sea Level Pressure  
Sea Level Pressure 30.01 in    
Wind  
Wind Speed 5 mph (West)    
Max Wind Speed 22 mph    
Max Gust Speed 33 mph    
Visibility 10 miles    
Events      
Averages and records for this station are not official NWS values.
T = Trace of Precipitation, MM = Missing Value Source: NWS Daily Summary

Daily Weather History Graph

Daily Weather History Graph

Search for Another Location

Airport or City:

Trip Planner

Search our weather history database for the weather conditions in past years. The results will help you decide how hot, cold, wet, or windy it might be!

Date:

Astronomy

Oct. 20, 2012 Rise Set
Actual Time 7:08 AM PDT 6:10 PM PDT
Civil Twilight 6:42 AM PDT 6:37 PM PDT
Nautical Twilight 6:11 AM PDT 7:07 PM PDT
Astronomical Twilight 5:41 AM PDT 7:37 PM PDT
Moon 12:45 PM PDT (10/20) 11:04 PM PDT (10/20)
Length of Visible Light 11h 54m
Length of Day
11h 01m
Waxing Crescent, 35% of the Moon is Illuminated
Oct 20
Waxing Crescent
Oct 21
First Quarter
Oct 29
Full
Nov 6
Last Quarter
Nov 13
New

Hourly Weather History & Observations

Time (PDT) Temp. Windchill Dew Point Humidity Pressure Visibility Wind Dir Wind Speed Gust Speed Precip Events Conditions
12:15 AM 37.4 °F 34.9 °F 24.8 °F 60% 30.15 in 10.0 mi North 3.5 mph - N/A   Clear
12:35 AM 33.8 °F - 23.0 °F 65% 30.14 in 10.0 mi Calm Calm - N/A   Clear
12:55 AM 35.6 °F 32.8 °F 21.2 °F 56% 30.14 in 10.0 mi NNW 3.5 mph - N/A   Clear
1:15 AM 32.0 °F 28.7 °F 19.4 °F 60% 30.14 in 10.0 mi NNW 3.5 mph - N/A   Clear
1:35 AM 33.8 °F - 24.8 °F 70% 30.14 in 10.0 mi North - - N/A   Clear
1:55 AM 33.8 °F 29.6 °F 23.0 °F 65% 30.13 in 10.0 mi North 4.6 mph - N/A   Clear
2:15 AM 33.8 °F - 23.0 °F 65% 30.13 in 10.0 mi Calm Calm - N/A   Clear
2:35 AM 32.0 °F 28.7 °F 23.0 °F 69% 30.12 in 10.0 mi NNE 3.5 mph - N/A   Clear
2:55 AM 37.4 °F - 24.8 °F 60% 30.11 in 10.0 mi Calm Calm - N/A   Clear
3:15 AM 32.0 °F - 21.2 °F 64% 30.10 in 10.0 mi Calm Calm - N/A   Clear
3:35 AM 32.0 °F 24.8 °F 24.8 °F 75% 30.10 in 10.0 mi NW 8.1 mph - N/A   Clear
3:55 AM 30.2 °F 25.4 °F 21.2 °F 69% 30.09 in 10.0 mi NE 4.6 mph - N/A   Clear
4:15 AM 33.8 °F 30.8 °F 24.8 °F 70% 30.08 in 10.0 mi NNW 3.5 mph - N/A   Clear
4:35 AM 30.2 °F - 23.0 °F 75% 30.08 in 10.0 mi Calm Calm - N/A   Clear
4:55 AM 30.2 °F 26.7 °F 23.0 °F 75% 30.08 in 10.0 mi WSW 3.5 mph - N/A   Clear
5:15 AM 28.4 °F - 21.2 °F 74% 30.08 in 10.0 mi North - - N/A   Clear
5:35 AM 32.0 °F - 21.2 °F 64% 30.07 in 10.0 mi Calm Calm - N/A   Clear
5:55 AM 26.6 °F - 19.4 °F 74% 30.07 in 10.0 mi Calm Calm - N/A   Clear
6:15 AM 24.8 °F 20.5 °F 17.6 °F 74% 30.07 in 10.0 mi NNW 3.5 mph - N/A   Clear
6:35 AM 26.6 °F - 17.6 °F 69% 30.08 in 10.0 mi Calm Calm - N/A   Clear
6:55 AM 28.4 °F 23.3 °F 19.4 °F 69% 30.08 in 10.0 mi West 4.6 mph - N/A   Clear
7:15 AM 26.6 °F 22.6 °F 17.6 °F 69% 30.08 in 10.0 mi North 3.5 mph - N/A   Clear
7:35 AM 30.2 °F - 21.2 °F 69% 30.08 in 10.0 mi Calm Calm - N/A   Clear
7:55 AM 28.4 °F - 19.4 °F 69% 30.08 in 10.0 mi Calm Calm - N/A   Clear
8:15 AM 39.2 °F 37.0 °F 28.4 °F 65% 30.07 in 10.0 mi South 3.5 mph - N/A   Clear
8:35 AM 42.8 °F 39.3 °F 26.6 °F 53% 30.07 in 10.0 mi NW 5.8 mph - N/A   Clear
8:55 AM 46.4 °F - 24.8 °F 43% 30.07 in 10.0 mi Calm Calm - N/A   Clear
9:15 AM 53.6 °F - 26.6 °F 35% 30.07 in 10.0 mi SE 4.6 mph - N/A   Clear
9:35 AM 53.6 °F - 24.8 °F 33% 30.06 in 10.0 mi SE 4.6 mph - N/A   Clear
9:55 AM 59.0 °F - 21.2 °F 23% 30.06 in 10.0 mi Calm Calm - N/A   Clear
10:15 AM 62.6 °F - 17.6 °F 18% 30.05 in 10.0 mi SE 3.5 mph - N/A   Clear
10:35 AM 64.4 °F - 19.4 °F 18% 30.04 in 10.0 mi SE 5.8 mph - N/A   Clear
10:55 AM 66.2 °F - 15.8 °F 14% 30.03 in 10.0 mi North - - N/A   Clear
11:15 AM 69.8 °F - 17.6 °F 14% 30.01 in 10.0 mi East 6.9 mph - N/A   Clear
11:35 AM 68.0 °F - 17.6 °F 15% 30.01 in 10.0 mi SW 8.1 mph - N/A   Clear
11:55 AM 69.8 °F - 19.4 °F 15% 30.01 in 10.0 mi West 9.2 mph 18.4 mph N/A   Clear
12:15 PM 69.8 °F - 21.2 °F 16% 30.00 in 10.0 mi WSW 9.2 mph 25.3 mph N/A   Clear
12:35 PM 69.8 °F - 19.4 °F 15% 29.99 in 10.0 mi SW 9.2 mph 33.4 mph N/A   Clear
12:55 PM 69.8 °F - 19.4 °F 15% 29.98 in 10.0 mi West 12.7 mph 28.8 mph N/A   Clear
1:15 PM 71.6 °F - 19.4 °F 14% 29.97 in 10.0 mi WSW 10.4 mph 25.3 mph N/A   Clear
1:35 PM 69.8 °F - 19.4 °F 15% 29.96 in 10.0 mi WSW 13.8 mph 20.7 mph N/A   Clear
2:15 PM 69.8 °F - 21.2 °F 16% 29.96 in 10.0 mi West 13.8 mph 31.1 mph N/A   Clear
2:35 PM 69.8 °F - 21.2 °F 16% 29.95 in 10.0 mi West 15.0 mph 23.0 mph N/A   Clear
2:55 PM 69.8 °F - 21.2 °F 16% 29.95 in 10.0 mi West 19.6 mph 25.3 mph N/A   Clear
3:15 PM 69.8 °F - 19.4 °F 15% 29.94 in 10.0 mi West 12.7 mph 26.5 mph N/A   Clear
3:35 PM 69.8 °F - 19.4 °F 15% 29.93 in 10.0 mi WSW 11.5 mph 32.2 mph N/A   Clear
3:55 PM 68.0 °F - 21.2 °F 17% 29.93 in 10.0 mi SW 6.9 mph 18.4 mph N/A   Clear
4:15 PM 68.0 °F - 23.0 °F 18% 29.91 in 10.0 mi SSW 15.0 mph 23.0 mph N/A   Clear
4:35 PM 66.2 °F - 23.0 °F 19% 29.91 in 10.0 mi SSW 17.3 mph 26.5 mph N/A   Clear
4:55 PM 66.2 °F - 23.0 °F 19% 29.90 in 10.0 mi SSW 17.3 mph 25.3 mph N/A   Clear
5:15 PM 64.4 °F - 24.8 °F 22% 29.90 in 10.0 mi SSW 19.6 mph 26.5 mph N/A   Clear
5:35 PM 64.4 °F - 24.8 °F 22% 29.93 in 10.0 mi NW 11.5 mph 24.2 mph N/A   Clear
5:55 PM 60.8 °F - 28.4 °F 29% 29.92 in 10.0 mi SW 15.0 mph 23.0 mph N/A   Clear
6:15 PM 60.8 °F - 28.4 °F 29% 29.90 in 10.0 mi SSW 21.9 mph 27.6 mph N/A   Clear
6:35 PM 59.0 °F - 30.2 °F 34% 29.92 in 10.0 mi North 4.6 mph 23.0 mph N/A   Clear
6:55 PM 55.4 °F - 33.8 °F 44% 29.92 in 10.0 mi Calm Calm - N/A   Clear
7:15 PM 53.6 °F - 35.6 °F 51% 29.93 in 10.0 mi West 9.2 mph 18.4 mph N/A   Clear
7:35 PM 51.8 °F - 33.8 °F 50% 29.93 in 10.0 mi NE 8.1 mph - N/A   Clear
7:55 PM 51.8 °F - 30.2 °F 44% 29.94 in 10.0 mi West 3.5 mph - N/A   Clear
8:15 PM 53.6 °F - 32.0 °F 44% 29.93 in 10.0 mi WNW 6.9 mph - N/A   Clear
8:35 PM 50.0 °F - 30.2 °F 47% 29.93 in 10.0 mi SSW 6.9 mph - N/A   Clear
8:55 PM 51.8 °F - 28.4 °F 41% 29.93 in 10.0 mi West 8.1 mph - N/A   Clear
9:55 PM 46.4 °F - 32.0 °F 57% 29.94 in 10.0 mi Calm Calm - N/A   Clear
10:35 PM 41.0 °F - 30.2 °F 65% 29.95 in 10.0 mi Calm Calm - N/A   Clear
10:55 PM 42.8 °F - 32.0 °F 66% 29.94 in 10.0 mi Calm Calm - N/A   Clear
11:15 PM 44.6 °F 43.1 °F 30.2 °F 57% 29.94 in 10.0 mi NW 3.5 mph - N/A   Clear
11:35 PM 44.6 °F - 32.0 °F 61% 29.94 in 10.0 mi Calm Calm - N/A   Clear
11:55 PM 44.6 °F 42.2 °F 32.0 °F 61% 29.95 in 10.0 mi NNW 4.6 mph - N/A   Clear